Location: Varese
(45.8000°N, 8.8330°E)
Time: 03:22:15
(UTC+02:00)

ISS - Pass Details

Date: 18 May 2021
Orbit: 417 x 422 km, 51.6° (Epoch: 14 June)

Event Time Altitude Azimuth Distance (km) Brightness Sun altitude
Rises 22:52:01 0° 267° (W) 2,360 0.5 -16.3°
Reaches altitude 10° 22:54:12 10° 275° (W) 1,499 -0.4 -16.5°
Maximum altitude 22:57:22 37° 346° (NNW) 668 -2.2 -16.8°
Drops below altitude 10° 23:00:33 10° 55° (NE) 1,505 -0.9 -17.1°
Sets 23:02:45 0° 64° (ENE) 2,372 0.0 -17.3°
